Location: Ravensburg
(47.7866°N, 9.6124°E)
Time: 15:48:24
(UTC+02:00)

ITAMSAT 1 - Pass Details

Date: 16 March 2026
Orbit: 782 x 793 km, 98.7° (Epoch: 18 April)

Event Time Altitude Azimuth Distance (km) Brightness Sun altitude
Exits shadow 19:52:48 14° 64° (ENE) 2,079 9.4 -14.9°
Maximum altitude 19:53:34 14° 54° (NE) 2,055 9.5 -15.0°
Drops below altitude 10° 19:56:15 10° 23° (NNE) 2,356 10.1 -15.4°
Sets 19:59:38 0° 360° (N) 3,293 11.1 -16.0°
